| time (UTC) | temp C | wind direction | speed KPH | gust KPH | rain 1hr cm | rain 24hr cm | rain mn cm | humidity % | barometer mb |
| 20260903153056 | 15 | 207 | 3.2 | 16.1 | 0.00 | 0.05 | 0.00 | 87 | 1015.9 |
| 20260903151554 | 15 | 139 | 3.2 | 11.3 | 0.00 | 0.05 | 0.00 | 87 | 1015.9 |
| 20260903150054 | 15 | 238 | 4.8 | 12.9 | 0.00 | 0.05 | 0.00 | 86 | 1016.0 |
| 20260903144551 | 15 | 252 | 4.8 | 11.3 | 0.00 | 0.05 | 0.00 | 87 | 1016.1 |
| 20260903143105 | 15 | 284 | 8.0 | 22.5 | 0.00 | 0.05 | 0.00 | 87 | 1016.2 |
| 20260903141545 | 15 | 317 | 8.0 | 16.1 | 0.00 | 0.05 | 0.00 | 88 | 1016.5 |
| 20260903140041 | 15 | 276 | 4.8 | 12.9 | 0.00 | 0.05 | 0.00 | 88 | 1016.5 |
| 20260903134540 | 15 | 259 | 4.8 | 16.1 | 0.00 | 0.05 | 0.00 | 89 | 1016.6 |
| 20260903133039 | 15 | 288 | 3.2 | 14.5 | 0.00 | 0.05 | 0.00 | 89 | 1016.6 |
| 20260903131543 | 15 | 342 | 6.4 | 16.1 | 0.00 | 0.05 | 0.00 | 90 | 1016.8 |
| 20260903130034 | 15 | 308 | 3.2 | 11.3 | 0.00 | 0.05 | 0.00 | 92 | 1016.8 |
| 20260903124534 | 15 | 337 | 3.2 | 8.0 | 0.00 | 0.05 | 0.00 | 92 | 1016.7 |
| 20260903123037 | 15 | 348 | 1.6 | 9.7 | 0.00 | 0.05 | 0.00 | 91 | 1016.7 |
| 20260903121533 | 15 | 91 | 1.6 | 6.4 | 0.00 | 0.05 | 0.00 | 91 | 1016.7 |
| 20260903120024 | 15 | 99 | 0.0 | 6.4 | 0.00 | 0.05 | 0.00 | 90 | 1016.9 |
| 20260903114525 | 15 | 20 | 1.6 | 8.0 | 0.03 | 0.05 | 0.05 | 90 | 1017.0 |
| 20260903113034 | 15 | 353 | 3.2 | 8.0 | 0.03 | 0.05 | 0.05 | 90 | 1017.2 |
| 20260903111521 | 14 | 285 | 4.8 | 12.9 | 0.05 | 0.05 | 0.05 | 91 | 1017.3 |
| 20260903110019 | 14 | 319 | 4.8 | 16.1 | 0.05 | 0.05 | 0.05 | 92 | 1017.4 |
| 20260903104518 | 13 | 328 | 1.6 | 6.4 | 0.03 | 0.03 | 0.03 | 92 | 1017.6 |
| 20260903103018 | 13 | 107 | 0.0 | 6.4 | 0.03 | 0.03 | 0.03 | 91 | 1017.5 |
| 20260903101522 | 13 | 89 | 1.6 | 6.4 | 0.00 | 0.00 | 0.00 | 91 | 1017.6 |
| 20260903100021 | 13 | 5 | 1.6 | 8.0 | 0.00 | 0.00 | 0.00 | 91 | 1017.8 |
| 20260903094516 | 13 | 100 | 1.6 | 8.0 | 0.00 | 0.00 | 0.00 | 91 | 1017.8 |
| 20260903093015 | 14 | 128 | 1.6 | 12.9 | 0.00 | 0.00 | 0.00 | 91 | 1018.0 |
| 20260903091519 | 13 | 90 | 1.6 | 6.4 | 0.00 | 0.00 | 0.00 | 89 | 1017.9 |
| 20260903090014 | 13 | 115 | 1.6 | 6.4 | 0.00 | 0.00 | 0.00 | 89 | 1017.9 |
| 20260903084520 | 13 | 86 | 3.2 | 8.0 | 0.00 | 0.00 | 0.00 | 88 | 1017.9 |
| 20260903083014 | 13 | 86 | 1.6 | 9.7 | 0.00 | 0.00 | 0.00 | 88 | 1017.9 |
| 20260903081515 | 13 | 103 | 1.6 | 3.2 | 0.00 | 0.00 | 0.00 | 88 | 1017.9 |
| 20260903080012 | 13 | 111 | 0.0 | 3.2 | 0.00 | 0.00 | 0.00 | 88 | 1018.1 |
| 20260903074512 | 13 | 179 | 0.0 | 3.2 | 0.00 | 0.00 | 0.00 | 88 | 1018.0 |
| 20260903073011 | 13 | 252 | 0.0 | 4.8 | 0.00 | 0.00 | 0.00 | 88 | 1018.0 |
| 20260903071509 | 13 | 224 | 0.0 | 4.8 | 0.00 | 0.00 | 0.00 | 87 | 1017.9 |
| 20260903070009 | 13 | 214 | 3.2 | 6.4 | 0.00 | 0.00 | 0.00 | 87 | 1017.9 |
| 20260903064508 | 13 | 164 | 1.6 | 6.4 | 0.00 | 0.00 | 0.00 | 85 | 1017.8 |
| 20260903063007 | 13 | 294 | 1.6 | 11.3 | 0.00 | 0.00 | 0.00 | 81 | 1017.8 |
| 20260903061506 | 14 | 245 | 6.4 | 12.9 | 0.00 | 0.00 | 0.00 | 79 | 1017.7 |
| 20260903060005 | 15 | 238 | 4.8 | 12.9 | 0.00 | 0.00 | 0.00 | 76 | 1017.7 |
| 20260903054505 | 15 | 250 | 4.8 | 12.9 | 0.00 | 0.00 | 0.00 | 72 | 1017.6 |
| 20260903053004 | 15 | 252 | 4.8 | 11.3 | 0.00 | 0.00 | 0.00 | 72 | 1017.5 |
| 20260903051503 | 16 | 193 | 6.4 | 17.7 | 0.00 | 0.00 | 0.00 | 72 | 1017.4 |
| 20260903050003 | 16 | 250 | 9.7 | 17.7 | 0.00 | 0.00 | 0.00 | 70 | 1017.3 |
| 20260903044507 | 16 | 201 | 6.4 | 16.1 | 0.00 | 0.00 | 0.00 | 69 | 1017.4 |
| 20260903043000 | 16 | 257 | 4.8 | 14.5 | 0.00 | 0.00 | 0.00 | 70 | 1017.5 |
| 20260903041615 | 16 | 198 | 6.4 | 17.7 | 0.00 | 0.00 | 0.00 | 69 | 1017.5 |
| 20260903040059 | 17 | 248 | 6.4 | 22.5 | 0.00 | 0.00 | 0.00 | 69 | 1017.5 |
| 20260903034602 | 17 | 221 | 6.4 | 22.5 | 0.00 | 0.00 | 0.00 | 68 | 1017.6 |
| 20260903033057 | 17 | 281 | 4.8 | 14.5 | 0.00 | 0.00 | 0.00 | 68 | 1017.5 |
| 20260903031556 | 18 | 215 | 4.8 | 17.7 | 0.00 | 0.00 | 0.00 | 66 | 1017.6 |
| 20260903030055 | 18 | 313 | 3.2 | 11.3 | 0.00 | 0.00 | 0.00 | 66 | 1017.7 |
| 20260903024554 | 18 | 144 | 4.8 | 14.5 | 0.00 | 0.00 | 0.00 | 66 | 1017.8 |
| 20260903023115 | 17 | 252 | 4.8 | 20.9 | 0.00 | 0.00 | 0.00 | 65 | 1017.9 |
| 20260903021550 | 17 | 224 | 3.2 | 16.1 | 0.00 | 0.00 | 0.00 | 62 | 1017.9 |
| 20260903020055 | 17 | 197 | 6.4 | 20.9 | 0.00 | 0.00 | 0.00 | 62 | 1018.0 |
| 20260903014548 | 18 | 266 | 8.0 | 16.1 | 0.00 | 0.00 | 0.00 | 58 | 1018.2 |
| 20260903013049 | 18 | 245 | 8.0 | 16.1 | 0.00 | 0.00 | 0.00 | 61 | 1018.3 |
| 20260903011544 | 17 | 116 | 6.4 | 19.3 | 0.00 | 0.00 | 0.00 | 65 | 1018.4 |
| 20260903010041 | 17 | 229 | 4.8 | 14.5 | 0.00 | 0.00 | 0.00 | 63 | 1018.7 |
| 20260903004540 | 18 | 295 | 4.8 | 11.3 | 0.00 | 0.00 | 0.00 | 63 | 1018.8 |
| 20260903003038 | 18 | 142 | 6.4 | 14.5 | 0.00 | 0.00 | 0.00 | 62 | 1019.1 |
| 20260903001536 | 17 | 215 | 4.8 | 12.9 | 0.00 | 0.00 | 0.00 | 68 | 1019.1 |
| 20260903000036 | 17 | 287 | 4.8 | 12.9 | 0.00 | 0.00 | 0.00 | 66 | 1019.3 |
| 20260902234534 | 17 | 152 | 4.8 | 14.5 | 0.00 | 0.00 | 0.00 | 64 | 1019.6 |
| 20260902233030 | 17 | 172 | 1.6 | 8.0 | 0.00 | 0.00 | 0.00 | 72 | 1019.7 |
| 20260902231530 | 16 | 177 | 1.6 | 9.7 | 0.00 | 0.00 | 0.00 | 75 | 1019.8 |
| 20260902230026 | 15 | 152 | 3.2 | 11.3 | 0.00 | 0.00 | 0.00 | 74 | 1020.1 |
| 20260902224524 | 15 | 158 | 1.6 | 11.3 | 0.00 | 0.00 | 0.00 | 76 | 1020.1 |
| 20260902223029 | 15 | 285 | 3.2 | 6.4 | 0.00 | 0.00 | 0.00 | 77 | 1020.3 |
| 20260902221527 | 15 | 113 | 1.6 | 8.0 | 0.00 | 0.00 | 0.00 | 77 | 1020.4 |
| 20260902220029 | 16 | 291 | 3.2 | 9.7 | 0.00 | 0.00 | 0.00 | 77 | 1020.3 |
| 20260902214520 | 16 | 102 | 1.6 | 9.7 | 0.00 | 0.00 | 0.00 | 79 | 1020.3 |
| 20260902213017 | 15 | 158 | 0.0 | 8.0 | 0.00 | 0.00 | 0.00 | 81 | 1020.1 |
| 20260902211514 | 14 | 108 | 1.6 | 4.8 | 0.00 | 0.00 | 0.00 | 82 | 1020.1 |
| 20260902210018 | 13 | 324 | 1.6 | 9.7 | 0.00 | 0.00 | 0.00 | 84 | 1020.3 |
| 20260902204511 | 13 | 166 | 1.6 | 12.9 | 0.00 | 0.00 | 0.00 | 85 | 1020.3 |
| 20260902203007 | 13 | 271 | 1.6 | 6.4 | 0.00 | 0.00 | 0.00 | 86 | 1020.4 |
| 20260902201516 | 12 | 181 | 1.6 | 6.4 | 0.00 | 0.00 | 0.00 | 85 | 1020.4 |
| 20260902200005 | 12 | 328 | 1.6 | 6.4 | 0.00 | 0.00 | 0.00 | 84 | 1020.4 |
| 20260902194503 | 12 | 120 | 0.0 | 3.2 | 0.00 | 0.00 | 0.00 | 83 | 1020.3 |
| 20260902193002 | 12 | 163 | 0.0 | 1.6 | 0.00 | 0.00 | 0.00 | 82 | 1020.1 |
| 20260902191601 | 12 | 198 | 0.0 | 4.8 | 0.00 | 0.00 | 0.00 | 82 | 1019.9 |
| 20260902190059 | 11 | 161 | 0.0 | 4.8 | 0.00 | 0.00 | 0.00 | 82 | 1019.7 |
| 20260902184558 | 11 | 210 | 0.0 | 6.4 | 0.00 | 0.00 | 0.00 | 82 | 1019.6 |
| 20260902183057 | 11 | 146 | 3.2 | 8.0 | 0.00 | 0.00 | 0.00 | 83 | 1019.4 |
| 20260902181557 | 11 | 195 | 0.0 | 3.2 | 0.00 | 0.00 | 0.00 | 83 | 1019.2 |
| 20260902180057 | 11 | 176 | 0.0 | 3.2 | 0.00 | 0.00 | 0.00 | 83 | 1019.3 |
| 20260902174555 | 11 | 181 | 0.0 | 4.8 | 0.00 | 0.00 | 0.00 | 82 | 1019.2 |
| 20260902173055 | 11 | 139 | 0.0 | 3.2 | 0.00 | 0.00 | 0.00 | 83 | 1019.2 |
| 20260902171605 | 11 | 180 | 0.0 | 9.7 | 0.00 | 0.00 | 0.00 | 84 | 1019.2 |
| 20260902170053 | 11 | 134 | 0.0 | 1.6 | 0.00 | 0.00 | 0.00 | 84 | 1019.0 |
| 20260902164551 | 11 | 131 | 0.0 | 1.6 | 0.00 | 0.00 | 0.00 | 85 | 1019.2 |
| 20260902163053 | 11 | 131 | 0.0 | 1.6 | 0.00 | 0.00 | 0.00 | 86 | 1019.0 |
| 20260902161550 | 11 | 131 | 0.0 | 1.6 | 0.00 | 0.00 | 0.00 | 86 | 1019.2 |
| 20260902160104 | 11 | 157 | 0.0 | 1.6 | 0.00 | 0.00 | 0.00 | 85 | 1019.1 |
| 20260902154555 | 12 | 156 | 0.0 | 6.4 | 0.00 | 0.00 | 0.00 | 85 | 1019.0 |